Погода в Чувашской Решетке

Россия / Ульяновская область     53°41′38″N   47°01′30″E
темп.,
°C
ветер,
м/с
пор.,
м/с
влажн.,
%
обл.,
%
осадки,
мм/ч
давл.,
гПа
погр.,
м
20 января, чт
чт2001:00−14юз229996 0.1 101813
04:00−9зюз269699 0.1 1018138
07:00−6ююз389195 0.1 1017289
10:00−10ююз3696100 0.1 1018114
13:00−6юз51291100 0.0 1018532
16:00−6ююз499395 0.0 1018374
19:00−12ю389868 0.0 101898
22:00−15ююз389965 0.0 1019100
21 января, пт
пт2101:00−16ююз399862 0.0 1019124
04:00−17ююз379971 0.0 102090
07:00−18ю379965 0.0 101986
10:00−17ю3810090 0.0 1020136
13:00−9ююв6149286 0.0 1018390
16:00−9ююв6159297 0.0 1017468
19:00−11ююв71792100 0.0 1016439
22:00−10ююв71891100 0.0 1015511
22 января, сб
сб2201:00−9ююв81892100 0.1 1015514
04:00−9ююв61493100 0.7 1015422
07:00−8ююв51194100 0.4 1015336
10:00−8ююв499454 0.5 1017229
13:00−5ю589299 0.1 1018418
16:00−4ю4689100 0.1 1019598
19:00−6юв3696100 0.0 1021138
22:00−6в2697100 0.3 1022178
23 января, вс
вс2301:00−5вюв4996100 1.3 1023365
04:00−4ююв61295100 3.1 1023586
07:00−5ююв61394100 0.9 1024543
10:00−6ююв51294100 1.2 1026510
13:00−5ююв5992100 0.4 1028454
16:00−5юв4893100 0.7 1029422
19:00−7юв3992100 0.2 1032334
22:00−8вюв3891100 0.3 1032274
24 января, пн
пн2401:00−11в2394100 0.0 103349
04:00−13в2295100 0.0 103430
07:00−14в2295100 0.0 103431
10:00−15в2394100 0.0 103548
13:00−7юв498298 0.0 1034300
16:00−8юв3686100 0.0 1034180
19:00−14вюв3593100 0.0 103464
22:00−17вюв2295100 0.0 103410